Location: Trebic
(49.2170°N, 15.8830°E)
Time: 20:58:38
(UTC+01:00)

ISS - Visible Passes

Search period start: 27 February 2021 00:00
Search period end: 09 March 2021 00:00
Orbit: 417 x 422 km, 51.6° (Epoch: 27 February)

Date Brightness Start Highest point End Pass type
(mag) Time Alt. Az. Time Alt. Az. Time Alt. Az.
27 Feb -3.9 04:52:06 69° SW 04:52:27 85° SSE 04:55:50 10° ENE visible
28 Feb -1.8 04:06:30 29° E 04:06:30 29° E 04:08:21 10° ENE visible
28 Feb -3.4 05:39:28 17° W 05:41:54 56° N 05:45:14 10° ENE visible
01 Mar -3.6 04:53:50 52° WNW 04:54:23 63° N 04:57:44 10° ENE visible
02 Mar -2.1 04:08:10 35° ENE 04:08:10 35° ENE 04:10:15 10° ENE visible
02 Mar -3.3 05:41:07 14° WNW 05:43:55 55° N 05:47:14 10° E visible
03 Mar -0.3 03:22:29 12° ENE 03:22:29 12° ENE 03:22:46 10° ENE visible
03 Mar -3.3 04:55:26 38° NW 04:56:22 54° N 04:59:41 10° ENE visible
04 Mar -2.4 04:09:45 39° NE 04:09:45 39° NE 04:12:09 10° ENE visible
04 Mar -3.6 05:42:42 11° WNW 05:45:52 71° NNE 05:49:13 10° E visible
05 Mar -0.5 03:24:05 14° ENE 03:24:05 14° ENE 03:24:38 10° ENE visible
05 Mar -3.4 04:57:02 32° WNW 04:58:20 60° N 05:01:41 10° E visible
06 Mar -2.8 04:11:23 47° NE 04:11:23 47° NE 04:14:06 10° E visible
06 Mar -3.7 05:44:21 10° WNW 05:47:42 70° SSW 05:51:02 10° ESE visible
07 Mar -0.7 03:25:45 16° ENE 03:25:45 16° ENE 03:26:33 10° ENE visible
07 Mar -3.8 04:58:43 30° WNW 05:00:13 88° NNE 05:03:35 10° ESE visible
08 Mar -3.3 04:13:09 60° ENE 04:13:09 60° ENE 04:16:03 10° E visible
08 Mar -2.9 05:46:18 10° W 05:49:22 34° SSW 05:52:26 10° SSE visible
